Flag for Poland Weather past 2 weeks in Poznan, Poland

Now
43 °F

Sprinkles. Scattered clouds.


Feels Like: 34 °F
Forecast: 40 / 48 °F
Wind: 18 mph from West

Location: Poznan Airport

Current Time: Dec 21, 2014 at 2:54:15 PM

Latest Report: Dec 21, 2014 at 2:30 PM


Visibility: N/A

Pressure: 30.09 "Hg

Humidity: 76%

Dew point: 36 °F

Location of PoznanLocation

Historic Weather in Poznan — Graph

°F

Poznan temperature yesterday

Maximum temperature yesterday: 45 °F (at 11:00 AM)
Minimum temperature yesterday: 36 °F (at 6:00 PM)
Average temperature yesterday: 41 °F

Past Weeks' High & Low Weather Summary

 TemperatureHumidityPressure
High54 °F (Dec 19, 4:00 AM)94% (Dec 18, 7:30 PM)30.39 "Hg (Dec 18, 7:30 PM)
Low25 °F (Dec 10, 2:30 AM)61% (Dec 20, 11:00 AM)29.47 "Hg (Dec 12, 7:00 PM)
Average40 °F84%29.90 "Hg
* Reported Dec 6 1:00 PM — Dec 21 1:30 PM, Poznan, Weather by CustomWeather, © 2014

Note: Actual official high and low records may vary slightly from our data, if they occured in-between our weather recording intervals... More about our weather records

Advertising

Poznan weather history for previous 24 hours

 ConditionsComfort  
Time TempWeatherWind HumidityBarometerVisibility
1:30 PM
Dec 21
43 °FSprinkles. Partly sunny.20 mph71%30.09 "HgN/A
1:00 PM43 °FPartly sunny.16 mph71%30.09 "HgN/A
12:30 PM43 °FPartly sunny.21 mph71%30.12 "HgN/A
12:00 PM43 °FPartly sunny.18 mph71%30.09 "HgN/A
11:30 AM43 °FPartly sunny.18 mph71%30.09 "HgN/A
11:00 AM41 °FPartly sunny.17 mph76%30.09 "HgN/A
10:30 AM41 °FPartly sunny.16 mph76%30.09 "HgN/A
10:00 AM41 °FPartly sunny.21 mph70%30.09 "HgN/A
9:30 AM41 °FPartly sunny.21 mph70%30.07 "HgN/A
9:00 AM39 °FPartly sunny.18 mph81%30.07 "HgN/A
8:30 AM39 °FPartly sunny.17 mph81%30.04 "HgN/A
8:00 AM39 °FPartly sunny.16 mph81%30.04 "HgN/A
7:30 AM39 °FPassing clouds.17 mph81%30.01 "HgN/A
7:00 AM39 °FPassing clouds.20 mph81%30.01 "HgN/A
6:30 AM39 °FPassing clouds.18 mph81%29.98 "HgN/A
6:00 AM39 °FPassing clouds.17 mph81%29.98 "HgN/A
5:30 AM39 °FPassing clouds.20 mph81%29.95 "HgN/A
5:00 AM39 °FPassing clouds.21 mph81%29.92 "HgN/A
4:30 AM39 °FPassing clouds.22 mph81%29.92 "HgN/A
4:00 AM39 °FPassing clouds.23 mph81%29.89 "HgN/A
3:30 AM39 °FPassing clouds.23 mph81%29.89 "HgN/A
3:00 AM39 °FPassing clouds.24 mph81%29.86 "HgN/A
2:30 AM39 °FPassing clouds.22 mph81%29.86 "HgN/A
2:00 AM39 °FPassing clouds.17 mph75%29.83 "HgN/A
1:30 AM39 °FPassing clouds.18 mph75%29.80 "HgN/A
1:00 AM39 °FPassing clouds.21 mph81%29.80 "HgN/A
12:30 AM39 °FPassing clouds.23 mph81%29.80 "HgN/A
12:00 AM39 °FPassing clouds.20 mph81%29.77 "HgN/A
11:30 PM
Dec 20
39 °FSprinkles. Passing clouds.21 mph81%29.77 "HgN/A
10:30 PM39 °FSprinkles. Passing clouds.20 mph81%29.74 "HgN/A
10:00 PM39 °FSprinkles. Passing clouds.20 mph81%29.71 "HgN/A
9:30 PM39 °FPassing clouds.20 mph81%29.71 "HgN/A
9:00 PM37 °FPassing clouds.20 mph87%29.71 "HgN/A
8:30 PM37 °FPassing clouds.17 mph87%29.71 "HgN/A
8:00 PM37 °FPassing clouds.18 mph87%29.71 "HgN/A
7:30 PM37 °FPassing clouds.16 mph87%29.71 "HgN/A
7:00 PM37 °FPassing clouds.16 mph87%29.68 "HgN/A
6:00 PM36 °FSprinkles. Partly cloudy.17 mph87%29.71 "HgN/A
5:30 PM37 °FSprinkles. Partly cloudy.16 mph87%29.71 "HgN/A
5:00 PM37 °FSprinkles. Partly cloudy.18 mph87%29.71 "HgN/A
4:30 PM43 °FPassing clouds.21 mph66%29.68 "HgN/A
4:00 PM43 °FPassing clouds.20 mph66%29.68 "HgN/A
3:30 PM43 °FPartly sunny.18 mph66%29.68 "HgN/A
3:00 PM45 °FPartly sunny.21 mph61%29.71 "HgN/A
2:30 PM45 °FScattered clouds.23 mph61%29.71 "HgN/A
2:00 PM45 °FScattered clouds.22 mph61%29.74 "HgN/A
Weather by CustomWeather, © 2014

See weather overviewHow to use our weather pages